This demonstration page uses our WeatherBlox Daily Observations layout. Learn more.

Left ArrowRight Arrow

44.8408, -93.29828

Hourly Observations for September 13, 2020

Temp ( °F °C ) Dew Point ( °F °C ) Humidity (%) Winds ( mph kmh ) Pressure ( in mb ) Visibility ( mi km ) Precip ( " mm )
12:53 am 00:53 Mostly Clear 57 13.9 54 12.2 90 90 WSW 3 6 29.95 1014 10 16 0.00 0.00
1:53 am 01:53 Partly Cloudy 55 12.8 54 12.2 96 96 W 3 6 29.96 1015 10 16 0.00 0.00
2:26 am 02:26 Cloudy 56 13.3 54 12.2 93 93 WSW 6 9 29.97 1015 10 16 0.00 0.00
2:53 am 02:53 Mostly Cloudy 56 13.3 54 12.2 93 93 WSW 3 6 29.97 1015 10 16 0.00 0.00
3:53 am 03:53 Clear 55 12.8 53 11.7 93 93 WSW 3 6 29.98 1015 10 16 0.00 0.00
4:53 am 04:53 Clear 53 11.7 52 11.1 96 96 WSW 3 6 30.00 1016 9 14 0.00 0.00
5:53 am 05:53 Mostly Clear 52 11.1 51 10.6 97 97 WSW 3 6 30.01 1016 7 11 0.00 0.00
6:33 am 06:33 Cloudy with Mist and Fog 52 11.1 52 11.1 100 100 WSW 3 6 30.05 1018 6 10 0.00 0.00
6:53 am 06:53 Cloudy with Mist and Fog 52 11.1 52 11.1 100 100 VRB 3 6 30.05 1018 5 8 0.00 0.00
7:18 am 07:18 Cloudy with Mist and Fog 53 11.7 53 11.7 100 100 WNW 6 9 30.06 1018 6 10 0.00 0.00
7:53 am 07:53 Cloudy with Mist and Fog 53 11.7 53 11.7 100 100 SW 3 6 30.07 1018 6 10 0.00 0.00
8:53 am 08:53 Cloudy 54 12.2 53 11.7 97 97 W 3 6 30.08 1019 8 13 0.00 0.00
9:53 am 09:53 Mostly Cloudy 56 13.3 54 12.2 93 93 W 5 7 30.09 1019 10 16 0.00 0.00
10:45 am 10:45 Mostly Sunny 59 15 54 12.2 83 83 Calm 30.10 1019 10 16 0.00 0.00
10:53 am 10:53 Mostly Sunny 61 16.1 55 12.8 81 81 Calm 30.11 1020 10 16 0.00 0.00
11:53 am 11:53 Mostly Sunny 64 17.8 56 13.3 75 75 VRB 3 6 30.10 1019 10 16 0.00 0.00
12:53 pm 12:53 Mostly Sunny 66 18.9 55 12.8 68 68 VRB 6 9 30.11 1020 10 16 0.00 0.00
1:53 pm 13:53 Sunny 69 20.6 56 13.3 63 63 SSE 6 9 30.10 1019 10 16 0.00 0.00
2:53 pm 14:53 Sunny 70 21.1 55 12.8 59 59 VRB 3 6 30.10 1019 10 16 0.00 0.00
3:53 pm 15:53 Mostly Sunny 71 21.7 53 11.7 53 53 SW 6 9 30.10 1019 10 16 0.00 0.00
4:53 pm 16:53 Mostly Sunny 72 22.2 54 12.2 53 53 W 6 9 30.11 1020 10 16 0.00 0.00
5:53 pm 17:53 Mostly Sunny 71 21.7 55 12.8 57 57 Calm 30.13 1020 10 16 0.00 0.00
6:53 pm 18:53 Partly Cloudy 70 21.1 55 12.8 59 59 S 3 6 30.14 1021 10 16 0.00 0.00
7:53 pm 19:53 Mostly Cloudy 67 19.4 57 13.9 71 71 SSE 3 6 30.16 1021 10 16 0.00 0.00
8:53 pm 20:53 Mostly Cloudy 66 18.9 57 13.9 73 73 Calm 30.19 1022 10 16 0.00 0.00
9:53 pm 21:53 Partly Cloudy 65 18.3 57 13.9 76 76 NE 10 17 30.22 1023 10 16 0.00 0.00
10:53 pm 22:53 Partly Cloudy 62 16.7 54 12.2 75 75 NE 8 13 30.23 1024 10 16 0.00 0.00
11:53 pm 23:53 Partly Cloudy 61 16.1 54 12.2 78 78 NNE 8 13 30.26 1025 10 16 0.00 0.00

Powered by AerisWeather